Meteo Giornale » Osservazioni meteo Francia » Bale-Mulhouse

ore: 11:30 - Osservazioni Meteo Bale-Mulhouse
Lat. 47° 36' N Lon. 7° 31' E Alt. 270 metri s.l.m.

nuvoloso Europe/Paris

19 °C

Nuvoloso

Temp. 24 Ore

15 °C

22 °C

Ovest/Sud-Ovest

16.7 Km/h

Dew point 13 °C

Umidità 68 %

Visibilità  10 Km

Il sole sorge alle ore 05:31

Il sole tramonta alle ore 21:33

Data e Ora Cielo e Fenomeni T °C DP °C Um. % Pres. hPa Vis. km Vento km/h
Oggi h: 11:30 nuvoloso Nuvoloso 19 13 68 1021 10 O/SO 16.7
Oggi h: 11:00 nuvoloso Nuvoloso 19 12 63 1020 10 O 13
Oggi h: 10:30 nuvoloso Nuvoloso 19 12 63 1021 10 O 13
Oggi h: 10:00 nuvoloso Nuvoloso 18 12 67 1021 10 O/SO 14.8
Oggi h: 09:30 nuvoloso Nuvoloso 18 12 67 1021 10 O/SO 18.5
Oggi h: 09:00 poco_nuvoloso Poco Nuvoloso 17 13 77 1021 10 O/SO 13
Oggi h: 08:30 nuvoloso Nuvoloso 17 13 77 1021 10 O/SO 16.7
Oggi h: 08:00 nuvoloso Nuvoloso 16 13 82 1021 10 O/SO 18.5
Oggi h: 07:30 molto_nuvoloso Molto Nuvoloso 15 13 87 1021 10 O/SO 14.8
Oggi h: 06:30 nuvoloso Nuvoloso 15 12 82 1021 10 SO 13
Oggi h: 06:00 molto_nuvoloso Molto Nuvoloso 15 12 82 1021 10 SO 16.7
Oggi h: 05:30 molto_nuvoloso Molto Nuvoloso 15 13 87 1021 10 SO 18.5
Oggi h: 05:00 coperto Coperto 15 13 87 1021 10 O 9.3
Oggi h: 04:30 molto_nuvoloso Molto Nuvoloso 15 13 87 1021 10 O/SO 11.1
Oggi h: 04:00 coperto Coperto 15 13 87 1021 10 O/SO 11.1
Oggi h: 03:30 coperto Coperto 16 13 82 1021 10 O/SO 11.1
Oggi h: 03:00 coperto Coperto 16 13 82 1021 10 O/SO 14.8
Oggi h: 02:30 coperto Coperto 16 13 82 1021 10 SO 16.7
Oggi h: 02:00 sereno Sereno 16 13 82 1021 10 O/SO 14.8
Oggi h: 01:30 coperto Coperto 16 13 82 1021 10 O/SO 14.8
Oggi h: 01:00 molto_nuvoloso Molto Nuvoloso 16 13 82 1021 10 O/SO 13
Oggi h: 00:30 molto_nuvoloso Molto Nuvoloso 15 13 87 1021 10 O/SO 9.3
Oggi h: 00:00 sereno Sereno 16 13 82 1021 10 SO 13
Ieri h: 23:30 molto_nuvoloso Molto Nuvoloso 16 13 82 1021 10 O/SO 14.8
Ieri h: 23:00 molto_nuvoloso Molto Nuvoloso 16 13 82 1021 10 O/SO 16.7
Ieri h: 22:30 molto_nuvoloso Molto Nuvoloso 17 13 77 1021 10 O/SO 16.7
Ieri h: 22:00 molto_nuvoloso Molto Nuvoloso 17 13 77 1021 10 O/SO 16.7
Ieri h: 21:30 coperto Coperto 17 13 77 1020 10 O/SO 14.8
Ieri h: 21:00 sereno Sereno 17 13 77 1020 10 O/SO 18.5
Ieri h: 20:30 coperto Coperto 18 14 77 1020 10 O/SO 20.3
Ieri h: 20:00 sereno Sereno 18 14 77 1020 10 O/SO 16.7
Ieri h: 19:30 sereno Sereno 18 14 77 1020 10 O 16.7
Ieri h: 19:00 nuvoloso_piovaschi Debole Rovescio di Pioggia 18 14 77 1020 10 O 24
Ieri h: 18:30 nuvoloso_piovaschi Debole Rovescio di Pioggia 19 13 68 1019 10 O 20.3
Ieri h: 18:00 nuvoloso Nuvoloso 21 13 60 1018 10 O 20.3
Ieri h: 17:30 nuvoloso Nuvoloso 21 13 60 1018 10 O/NO 18.5
Ieri h: 17:00 molto_nuvoloso Molto Nuvoloso 22 15 64 1018 10 O/NO 18.5
Ieri h: 16:30 molto_nuvoloso Molto Nuvoloso 21 14 64 1018 10 O/NO 16.7
Ieri h: 16:00 molto_nuvoloso Molto Nuvoloso 20 14 68 1018 10 O 16.7
Ieri h: 15:30 molto_nuvoloso Molto Nuvoloso 20 14 68 1018 10 O 18.5
Ieri h: 15:00 molto_nuvoloso Molto Nuvoloso 20 15 72 1018 10 O 14.8
Ieri h: 14:30 nuvoloso_temporali Temporale con Pioggia Debole 21 15 68 1018 10 O/NO 14.8
Ieri h: 14:00 molto_nuvoloso Molto Nuvoloso 22 16 68 1018 10 O 20.3
Ieri h: 13:30 molto_nuvoloso Molto Nuvoloso 22 16 68 1018 10 N 5.5
Ieri h: 13:00 molto_nuvoloso Molto Nuvoloso 21 14 64 1018 10 N 5.5
Ieri h: 12:30 molto_nuvoloso Molto Nuvoloso 20 14 68 1018 10 SE 9.3
Ieri h: 12:00 nuvoloso Nuvoloso 20 14 68 1018 10 S/SE 9.3